User: anonymous   Login
Location: Adrasan
(36.3319°N, 30.4314°E)
Time: 11:43:53
(UTC+00:00)
Language:

Cosmos 1271 Rocket - Orbit

View from above orbital plane
View from above orbital plane
View from above satellite
View from above satellite

Ground track
Ground track

The orbit data is extracted from the following two-line orbital elements,

1 12465U 81046B   24112.88301096  .00016024  00000-0  65403-3 0  9996
2 12465  81.2428  22.7357 0026832 219.5452 140.3825 15.23963163333214
Epoch (UTC): 21 April 2024 21:11:32
Eccentricity: 0.0026832
inclination: 81.2428°
perigee height: 475 km
apogee height: 512 km
right ascension of ascending node: 22.7357°
argument of perigee: 219.5452°
revolutions per day: 15.23963163
mean anomaly at epoch: 140.3825°
orbit number at epoch: 33321

The dashed part of the orbit path shows where the satellite is in the earth's shadow,  

DLR